Content
SEND FEEDBACK

Daily
Averages
Monthly
Summary
United States of America

SALTVILLE, VIRGINIA


Home > North America > United States > Virginia
Elevation: 172 feet     Latitude: 36 53N     Longitude: 081 46W

WEATHER
 
SELECT A DAY
Number of Records: 123,522;   Date Range: 11/25/08 - 7/7/14
 
SHARE

PRINT THIS DATA

[ ← Previous Day ]
WEATHER ALMANAC - OCTOBER 18, 2013
[ Next Day → ]
[ °C ]   °F
Weather ElementAverageHighLow
Temperature52.4 °F62.2 °F (3:35 pm)43.9 °F (7:35 am)
Dewpoint42.9 °F46.8 °F (9:55 am)37.4 °F (7:15 pm)
Humidity73.1 %96 % (7:35 am)41 % (4:15 pm)
Barometer30.03 in30.10 in (10:15 am)30.00 in (4:55 pm)
Wind Speed1.4 mph5.8 mph (12:55 am)
Weather ElementAverage
Visibility7.4 mi
Wind DirectionENE (74.6 °)

Weather ElementTotal
Precipitation---
Heating Degree Days12 (Base 65)
Growing Degree Days3.1 (Base 50)
Averaged from 72 records on October 18, 2013
WEATHER CONDITIONS BREAKOUT
WIND DIRECTION BREAKOUT
WEATHER BY HOUR - OCTOBER 18, 2013
[ °C ]   °F
Local TimeTemperatureDewpointHumidityBarometerVisibilityWind DirectionWind SpeedGust SpeedPrecipitationEventsConditions
12:35 AM49.6 °F46.2 °F88 %30.03 in10.0 miWest (270°)3.5 mphMostly Cloudy
12:55 AM50.5 °F43.0 °F75 %30.02 in10.0 miWest (270°)5.8 mphMostly Cloudy
1:15 AM50.2 °F43.0 °F76 %30.02 in10.0 miWest (280°)3.5 mphOvercast
1:35 AM50.4 °F43.3 °F77 %30.01 in10.0 miCalmOvercast
1:55 AM49.6 °F44.1 °F81 %30.02 in10.0 miCalmMostly Cloudy
2:15 AM49.8 °F45.5 °F85 %30.03 in10.0 miCalmOvercast
2:35 AM49.8 °F44.1 °F81 %30.03 in10.0 miCalmOvercast
2:55 AM49.6 °F44.6 °F83 %30.03 in10.0 miCalmOvercast
3:15 AM49.5 °F44.1 °F82 %30.02 in10.0 miCalmMostly Cloudy
3:35 AM48.6 °F45.7 °F90 %30.02 in10.0 miCalmScattered Clouds
3:55 AM46.2 °F44.1 °F92 %30.01 in10.0 miCalmClear
4:15 AM45.1 °F43.3 °F93 %30.01 in0.5 miNNW (330°)4.6 mphFogFog
4:35 AM44.8 °F43.2 °F94 %30.02 in0.2 miCalmFogFog
4:55 AM46.6 °F43.7 °F90 %30.03 in4.0 miNW (320°)3.5 mphMostly Cloudy
5:15 AM46.4 °F45.0 °F95 %30.03 in0.2 miNW (320°)3.5 mphFogFog
5:35 AM46.4 °F45.0 °F95 %30.03 in0.2 miCalmFogFog
5:55 AM45.7 °F44.4 °F95 %30.04 in0.2 miNW (320°)3.5 mphFogFog
6:15 AM45.5 °F44.1 °F95 %30.04 in0.2 miCalmFogFog
6:35 AM45.5 °F44.1 °F95 %30.04 in0.2 miCalmFogFog
6:55 AM44.8 °F43.3 °F95 %30.05 in0.2 miCalmFogFog
7:15 AM44.6 °F43.3 °F95 %30.05 in0.2 miCalmFogFog
7:35 AM43.9 °F42.8 °F96 %30.05 in0.2 miCalmFogFog
7:55 AM44.1 °F42.8 °F95 %30.05 in0.2 miCalmFogFog
8:15 AM44.2 °F43.0 °F95 %30.06 in0.2 miCalmFogFog
8:35 AM45.0 °F43.7 °F95 %30.07 in0.2 miCalmFogFog
8:55 AM46.0 °F44.8 °F95 %30.07 in0.2 miCalmFogFog
9:15 AM46.9 °F45.7 °F95 %30.08 in0.2 miCalmFogFog
9:35 AM47.8 °F46.6 °F95 %30.09 in0.2 miCalmFogFog
9:55 AM48.2 °F46.8 °F95 %30.09 in0.5 miCalmFogFog
10:15 AM47.5 °F46.0 °F95 %30.10 in0.2 miCalmFogFog
10:35 AM48.6 °F46.6 °F93 %30.10 in7.0 miCalmMostly Cloudy
10:55 AM50.0 °F46.2 °F87 %30.10 in10.0 miCalmScattered Clouds
11:15 AM50.4 °F44.4 °F80 %30.10 in10.0 miCalmScattered Clouds
11:35 AM51.1 °F43.2 °F74 %30.10 in10.0 miWest (270°)3.5 mphClear
11:55 AM52.5 °F44.1 °F73 %30.08 in10.0 miNW (310°)4.6 mphClear
12:15 PM54.3 °F42.3 °F64 %30.08 in10.0 miNNE (20°)3.5 mphClear
12:35 PM55.2 °F41.0 °F59 %30.08 in10.0 miCalmClear
12:55 PM56.1 °F41.7 °F58 %30.07 in10.0 miCalmClear
1:15 PM56.5 °F40.3 °F55 %30.06 in10.0 miCalmClear
1:35 PM58.1 °F41.0 °F53 %30.06 in10.0 miCalmClear
1:55 PM58.6 °F42.4 °F55 %30.04 in10.0 miWest (270°)5.8 mphClear
2:07 PM59.0 °F42.8 °F55 %30.04 in10.0 miWest (270°)4.6 mphClear
2:15 PM60.3 °F43.2 °F53 %30.03 in10.0 miWest (260°)5.8 mphClear
2:35 PM60.3 °F42.3 °F51 %30.03 in10.0 miWest (280°)3.5 mphClear
2:55 PM59.5 °F40.3 °F49 %30.02 in10.0 miCalmClear
3:15 PM61.2 °F41.0 °F47 %30.01 in10.0 miSSE (160°)5.8 mphClear
3:35 PM62.2 °F41.7 °F47 %30.01 in10.0 miSW (230°)5.8 mphClear
3:55 PM61.9 °F39.6 °F44 %30.01 in10.0 miCalmClear
4:15 PM61.9 °F37.6 °F41 %30.01 in10.0 miCalmClear
4:35 PM61.9 °F39.2 °F43 %30.01 in10.0 miWest (260°)3.5 mphClear
4:55 PM61.5 °F39.7 °F45 %30.00 in10.0 miWNW (290°)3.5 mphClear
5:15 PM60.8 °F37.6 °F42 %30.01 in10.0 miCalmClear
5:35 PM60.8 °F38.7 °F44 %30.00 in10.0 miCalmClear
5:55 PM60.8 °F39.0 °F45 %30.00 in10.0 miCalmClear
6:15 PM59.9 °F38.5 °F45 %30.00 in10.0 miCalmClear
6:35 PM59.0 °F38.5 °F47 %30.00 in10.0 miSouth (190°)3.5 mphClear
6:55 PM59.0 °F37.6 °F45 %30.01 in10.0 miSSW (210°)3.5 mphClear
7:15 PM58.6 °F37.4 °F45 %30.01 in10.0 miCalmClear
7:35 PM57.4 °F39.7 °F52 %30.01 in7.0 miCalmClear
7:55 PM54.7 °F42.1 °F62 %30.01 in10.0 miEast (80°)3.5 mphClear
8:15 PM54.1 °F44.1 °F69 %30.02 in10.0 miNE (50°)4.6 mphClear
8:35 PM53.6 °F44.2 °F71 %30.02 in10.0 miENE (60°)4.6 mphClear
8:55 PM53.1 °F44.4 °F72 %30.01 in10.0 miNE (50°)4.6 mphClear
9:15 PM52.2 °F44.6 °F75 %30.02 in10.0 miCalmClear
9:35 PM52.9 °F44.2 °F72 %30.01 in10.0 miCalmClear
9:55 PM51.8 °F43.9 °F74 %30.02 in10.0 miCalmClear
10:15 PM52.9 °F43.7 °F71 %30.02 in10.0 miCalmClear
10:35 PM51.4 °F44.4 °F77 %30.01 in10.0 miCalmClear
10:55 PM51.1 °F44.6 °F78 %30.01 in10.0 miCalmScattered Clouds
11:15 PM50.4 °F44.6 °F81 %30.01 in10.0 miCalmMostly Cloudy
11:35 PM50.9 °F44.8 °F80 %30.01 in10.0 miCalmOvercast
11:55 PM50.4 °F45.3 °F83 %30.01 in10.0 miCalmOvercast
Hourly data recorded from KJFZ, located miles away from Saltville, Virginia







STORIES FROM OUR PARTNERS